Location: Long Sault Conservation Area
(44.0496°N, 78.7419°W)
Time: 23:07:47
(UTC-05:00)

Daily predictions for brighter satellites

Satellite Brightness Start Highest point End
(mag) Time Altitude Azimuth Time Altitude Azimuth Time Altitude Azimuth
USA 267 4.2 18:07:17 10° ENE 18:12:58 33° NNE 18:18:37 10° NW
Cosmos 2297 Rocket 3.2 18:08:59 10° SSE 18:13:32 25° ESE 18:18:05 10° NE
FENGYUN 3A 3.7 18:09:30 10° SSE 18:14:50 67° ENE 18:20:13 10° N
CENTAUR R/B 4.0 18:15:15 10° SE 18:18:02 13° ESE 18:20:58 10° ENE
Cosmos 1825 3.9 18:17:10 10° SW 18:20:41 37° WNW 18:24:14 10° N
Okean 1-7 3.3 18:17:17 10° N 18:21:43 78° W 18:26:06 10° S
MTI 4.0 18:19:13 10° NNE 18:22:19 46° E 18:25:23 10° S
YAOGAN 1 3.0 18:21:00 10° S 18:25:18 69° WSW 18:29:39 10° NNW
Cosmos 405 4.2 18:24:34 10° SE 18:27:15 21° E 18:29:58 10° NE
Cosmos 2333 Rocket 2.2 18:23:04 10° NNW 18:28:47 89° ENE 18:34:26 10° SSE
NOSS 0 Rocket 3.9 18:23:52 10° NNW 18:30:05 79° ENE 18:36:18 10° SSE
Cosmos 1812 3.8 18:27:02 10° NNE 18:30:14 24° ENE 18:33:25 10° SE
Resurs 01 Rocket 3.5 18:32:25 11° ENE 18:33:43 12° ENE 18:35:24 10° NE
Cosmos 1733 Rocket 3.5 18:29:56 10° SSE 18:33:54 38° E 18:37:54 10° NNE
Cosmos 1624 Rocket 3.9 18:29:19 10° NNW 18:34:34 74° ENE 18:39:45 10° SSE
COSMOS 2428 3.9 18:29:23 10° NW 18:34:53 48° WSW 18:40:20 10° S
Shenzhou-11 Module 3.2 18:32:17 10° W 18:35:05 36° SSW 18:37:53 10° SE
Cosmos 1680 Rocket 4.3 18:31:12 10° SW 18:36:26 58° WNW 18:41:42 10° NNE
SKYMED 2 3.7 18:32:11 10° N 18:36:32 79° WNW 18:40:52 10° SSW
Cosmos 2082 4.2 18:33:52 10° S 18:38:56 36° ESE 18:44:03 10° NE
NOSS 3-2 (A) 3.5 18:34:18 10° SSW 18:40:07 66° ESE 18:46:36 10° NE
Iridium 4 Rocket 4.3 18:36:30 10° NNE 18:40:41 25° ENE 18:44:34 10° SE
Cosmos 44 Rocket 4.5 18:36:42 10° NNW 18:40:54 26° NE 18:44:17 14° E
ATLAS 3B R/B 3.0 18:35:18 10° SW 18:42:34 78° NW 18:49:34 10° NE
DMSP B5D1-3 4.5 18:41:12 10° NNE 18:46:21 72° ESE 18:51:28 10° S
ERS-2 2.4 18:43:21 10° SE 18:46:54 47° ENE 18:50:28 10° N
Tiangong 2 1.3 18:43:45 10° W 18:46:55 66° S 18:49:08 18° ESE
Cosmos 2233 Rocket 4.0 18:43:00 10° N 18:49:20 88° E 18:55:35 10° S
Okean 3 4.0 18:46:27 10° N 18:50:19 35° ENE 18:54:10 10° SE
DNEPR-1 R/B 3.7 18:46:42 10° SSW 18:50:45 50° ESE 18:54:48 11° NE
Meteor 1-27 Rocket 4.5 18:47:03 10° NNW 18:52:48 61° W 18:58:36 10° S
EO 1 Del DPAF 3.1 18:50:40 10° NNE 18:54:31 83° ESE 18:58:20 10° SSW
Thor Agena Rocket 4.2 18:50:15 10° NE 18:54:44 30° E 18:59:10 10° SSE
USA 238 DEB 4.1 18:48:00 10° SW 18:54:50 65° NW 19:01:48 10° NNE
FREGAT/IRIS 2.7 18:52:02 10° SSE 18:54:54 50° ENE 18:57:48 10° N
USA 238 4.1 18:48:05 10° SW 18:54:56 66° NW 19:01:54 10° NNE
Cosmos 1980 3.8 18:51:16 10° NNW 18:57:00 85° WSW 19:02:41 10° SSE
FengYun 1-2 T 4.1 18:54:20 10° SSE 18:59:49 76° ENE 19:05:20 10° N
Lacrosse 5 2.1 18:56:02 10° NW 19:01:05 73° SW 19:06:07 10° SE
Cosmos 1464 Rocket 4.1 18:56:48 10° N 19:02:44 49° ENE 19:08:38 10° SSE
BREEZE-M R/B 3.1 19:02:35 10° WNW 19:04:50 61° NNE 19:07:29 22° E
Cosmos 1633 3.0 19:02:21 10° SSE 19:05:36 35° E 19:08:53 10° NNE
Cosmos 2084 Rocket 3.4 19:02:46 10° SW 19:07:11 89° ESE 19:10:40 15° NE
Sich 1 Rocket 4.3 19:04:57 10° SSE 19:08:52 30° E 19:12:49 10° NNE
Cosmos 1238 4.4 19:07:41 10° S 19:10:50 89° E 19:14:42 10° N
Aureole 3 4.1 19:05:08 10° S 19:11:25 70° E 19:16:24 10° NNE
Envisat 3.3 19:06:44 10° SE 19:11:32 45° ENE 19:16:22 10° N
Cosmos 1072 Rocket 4.4 19:06:24 10° N 19:12:32 64° E 19:18:44 10° SSE
ALOS 4.3 19:11:22 10° SSW 19:15:28 30° W 19:19:37 10° NNW
SJ-6B 2.7 19:11:58 10° SSE 19:15:39 60° ENE 19:19:25 10° N
Cosmos 1378 Rocket 3.6 19:13:13 10° N 19:17:32 53° ENE 19:21:51 10° SSE
Cosmos 2285 Rocket 4.4 19:12:06 10° SSW 19:18:23 66° WNW 19:24:46 10° NNE
USA 215 3.2 19:15:54 15° NE 19:21:25 75° SE 19:27:57 10° SW
Cosmos 44 3.4 19:20:37 10° NNW 19:25:35 65° NE 19:28:16 28° SE
Meteor 1-14 Rocket 4.2 19:19:54 10° S 19:25:37 76° E 19:31:31 10° NNE
HJ-1C 3.4 19:22:17 10° SSE 19:25:42 84° WSW 19:29:08 10° NNW
SeaSat 1 2.4 19:21:26 10° SSE 19:26:22 88° ENE 19:31:21 10° NNW
Okean 1 3.5 19:23:05 10° N 19:26:56 44° ENE 19:27:00 44° E
ARGOS Delta rocket 3.9 19:25:08 10° NNE 19:30:02 55° E 19:34:39 10° S
Cosmos 2219 Rocket 4.5 19:26:09 10° NW 19:30:42 25° WSW 19:35:13 10° SSW
NOSS 3-2 (C) 3.5 19:25:25 10° SW 19:31:22 80° NW 19:38:02 10° NE
Cosmos 2034 Rocket 4.0 19:29:43 10° N 19:36:05 66° E 19:42:24 10° SSE
Cosmos 1891 Rocket 4.4 19:34:27 10° N 19:40:46 83° E 19:46:54 10° S
Cosmos 2237 Rocket 3.5 19:36:51 10° NW 19:42:04 40° WSW 19:47:15 10° S
CZ-4C R/B 4.0 19:36:59 10° NNW 19:42:28 25° NNE 19:44:05 23° NE
Cosmos 2227 Rocket 2.8 19:37:09 10° SW 19:42:42 56° WNW 19:48:17 10° NNE
SL-16 R/B 2.1 19:38:12 10° NNW 19:43:55 88° ENE 19:47:37 23° SSE
SL-8 R/B 3.8 19:43:45 10° SW 19:48:23 53° SSE 19:48:30 53° SE
Meteor 1-18 Rocket 4.3 19:44:40 10° NNW 19:50:19 76° W 19:55:50 10° S
Meteor 1-20 Rocket 4.3 19:45:22 10° SSW 19:51:02 81° W 19:56:52 10° N
Cosmos 1452 Rocket 4.0 19:48:12 10° NNW 19:53:24 61° WSW 19:58:33 10° S
USA 267 3.3 19:53:09 43° E 19:55:17 65° NNE 20:01:46 10° NW
CZ-2D R/B 4.0 19:53:25 13° S 19:56:48 51° W 20:00:37 10° NNW
Cosmos 1816 Rocket 4.5 19:50:47 10° S 19:57:00 59° E 20:03:15 10° NNE
Cosmos 2297 Rocket 3.0 19:51:45 10° SW 19:57:14 50° WNW 20:02:46 10° NNE
Spot 2 Rocket 3.3 20:01:54 69° ENE 20:01:54 69° ENE 20:06:54 10° N
Cosmos 1603 4.2 19:56:25 10° NNW 20:01:13 43° NE 20:01:13 43° NE
Cosmos 1908 Rocket 4.2 19:57:30 10° SSW 20:01:54 57° W 20:06:19 10° N
Cosmos 1048 Rocket 3.9 19:58:35 10° SSW 20:03:55 78° ESE 20:04:54 59° NE
Geosat 3.9 20:02:18 40° NNE 20:04:10 89° WNW 20:09:12 10° SSW
Resurs 1-3 3.6 20:05:48 72° NNW 20:05:48 72° NNW 20:09:47 10° NNW
BREEZE-M DEB (TANK) 3.9 20:04:28 10° WNW 20:05:29 24° WNW 20:05:29 24° WNW
CENTAUR R/B 2.4 20:01:18 10° SSW 20:07:19 81° SE 20:09:50 41° NE
Cosmos 1939 Rocket 4.0 20:10:28 38° NNW 20:10:28 38° NNW 20:13:04 10° NNW
Resurs 01 Rocket 1.7 20:09:58 71° NW 20:09:58 71° NW 20:14:00 10° NNW
Meteor 1-19 Rocket 4.0 20:05:09 10° N 20:10:42 77° E 20:10:49 76° E
Cosmos 921 Rocket 3.7 20:17:01 10° NNW 20:20:43 53° NW 20:20:43 53° NW
Cosmos 44 Rocket 3.8 20:17:49 10° NW 20:22:45 56° WSW 20:23:04 55° SW
Tiangong 2 4.2 20:20:41 10° W 20:21:24 15° WSW 20:21:24 15° WSW
Meteor 2-4 Rocket 4.1 20:20:20 10° N 20:24:51 53° NNE 20:24:51 53° NNE
Cosmos 1975 Rocket 4.1 20:23:24 10° NNW 20:26:41 43° NW 20:26:41 43° NW
Tsikada Rocket 4.1 20:21:25 10° SSW 20:27:49 76° W 20:34:16 10° N
H-2A R/B 4.4 21:05:16 15° N 21:05:16 15° N 21:06:12 10° N
USA 215 4.0 21:03:16 42° N 21:04:10 44° NNW 21:10:17 10° W
CZ-4C R/B 3.8 21:25:03 10° NW 21:29:16 40° NNW 21:29:16 40° NNW
CENTAUR R/B 4.4 21:53:20 10° W 21:57:07 26° NW 21:57:07 26° NW
